Regional Weather Roundup
Issued by NWS Northern Indiana

Home | Current Version | Previous Version | Text Only | Print | Product List | Glossary Off
Versions: 1 2 3 4 5 6 7 8 9 10 11 12 13 14 15 16 17 18 19 20 21 22 23 24 25 26 27 28 29 30 31 32 33 34 35 36 37 38 39 40 41 42 43 44 45 46 47 48 49 50

000
ASUS43 KIWX 200400
RWRIWX

KIWX WEATHER ROUNDUP
NATIONAL WEATHER SERVICE NORTHERN INDIANA
1100 PM EST FRI JAN 19 2018

NOTE: "FAIR" INDICATES FEW OR NO CLOUDS BELOW 12,000 FEET WITH NO
SIGNIFICANT WEATHER AND/OR OBSTRUCTIONS TO VISIBILITY.

* THESE STATIONS ARE NOT UNDER NWS QUALITY CONTROL. THEY ALSO MAY NOT
  REPORT WEATHER SUCH AS PRECIPITATION OR FOG.

INZ001>027-200500-
NORTHERN INDIANA

CITY           SKY/WX    TMP DP  RH WIND       PRES   REMARKS
GARY*          MOCLDY    39  27  60 SW14      29.79R
KNOX*          FAIR      34  27  75 SW18      29.83S WCI  23
SOUTH BEND     FAIR      34  24  67 SW21G32   29.80R WCI  22
GOSHEN         FAIR      33  24  69 SW22G32   29.81F WCI  21
MONTICELLO*    FAIR      34  23  64 S21G26    29.86S WCI  22
FORT WAYNE     MOCLDY    34  26  72 SW17      29.87F WCI  23
PERU/GRISSOM   FAIR      34  26  70 SW21G29   29.87F WCI  23

$$
INZ028>050-200500-
CENTRAL INDIANA

CITY           SKY/WX    TMP DP  RH WIND       PRES   REMARKS
LAFAYETTE      FAIR      34  23  64 SW14G25   29.90F WCI  25
MUNCIE*        FAIR      36  22  56 SW16G25   29.91R
INDIANAPOLIS   MOCLDY    36  23  59 SW17      29.96S

$$
MIZ043>046-050>051-056>058-064>065-071>073-077>080-200500-
SOUTHWEST LOWER MICHIGAN

CITY           SKY/WX    TMP DP  RH WIND       PRES   REMARKS
BATTLE CREEK   FAIR      34  24  67 SW21      29.78R WCI  22
BENTON HARBOR  FAIR      38  24  57 S12       29.78R
COLDWATER*     FAIR      35  24  64 SW14      29.78S WCI  26
HILLSDALE*     FAIR      34  23  64 SW16G25   29.77S WCI  23
HOLLAND        FAIR      37  27  67 SW23G37   29.74R
GRAND RAPIDS   MOCLDY    36  24  62 SW16      29.72S
KALAMAZOO      FAIR      36  24  62 SW16      29.78R
THREE RIVERS*  FAIR      36  25  64 SW13G21   29.80R

$$
OHZ001>008-015>018-024>025-200500-
NORTHWEST OHIO

CITY           SKY/WX    TMP DP  RH WIND       PRES   REMARKS
DEFIANCE       FAIR      34  23  64 SW16      29.85F WCI  24
FINDLAY        FAIR      35  22  58 SW21      29.87F WCI  24
TOLEDO EXPRESS FAIR      35  25  66 SW17G29   29.82F WCI  25
TOLEDO METCALF FAIR      35  24  64 SW23G29   29.83F WCI  23
LIMA           FAIR      33  23  66 SW17G26   29.90S WCI  22

$$
AND FOR LAKE MICHIGAN COASTAL AND OPEN LAKE BUOY OBSERVATIONS

STATION/POSITION TEMP    WIND        PRES    VSBY  WAVE
                 AIR SEA DIR/SP/G                  HT/PER
                 (F)     (DEG/KT/KT) (MB)    (MI)  (FT/S)
CALUMET HARBOR    38     200/ 20/ 26 1007.4R
MICHIGAN CITY     37     190/ 20/ 23   N/A
BURNS HARBOR      37     200/ 22/ 33 1008.8R
SAINT JOSEPH      39     200/ 19/ 28 1008.1

$$
&&




USA.gov is the U.S. government's official web portal to all federal, state and local government web resources and services.